[[{"header":{"parameterUnit":"m.s-1","parameterCategory":1,"la1":30.2991,"la2":30.254,"lo1":-89.0895,"lo2":-89.0444,"dy":0.0017,"dx":0.0017,"nx":28,"ny":28,"refTime":"2024-07-16T21:00:00:Z","depth":0,"parameterNumber":2,"parameterNumberName":"U-component_of_WINDS"},"data":[0,0,0,0,0,0,0,0,0,0,0,0,0,0,0,0,0,0,0,0,0,0,0,0,0,0,0,0,0,0,0,0,0,0,0,0,0,0,0,0,0,0,0,0,0,0,0,0,0,0,0,0,0,0,0,0,0,0,1.2446,1.2447,0,1.2543,1.2544,1.2546,1.2562,1.2561,1.256,1.2559,1.2664,1.2668,1.2671,0,0,0,0,0,0,0,0,0,0,0,0,0,1.2278,1.228,1.2446,1.2447,1.2448,1.2543,1.2545,1.2546,1.2562,1.2561,1.256,1.2559,1.2663,1.2667,1.2671,0,0,0,0,0,0,0,0,0,0,0,0,0,1.236,1.2281,1.2445,1.2468,1.2471,1.2543,1.2545,1.2546,1.2562,1.2561,1.256,1.2559,1.2661,1.2667,1.2672,1.2731,0,0,1.2688,1.2691,0,0,0,0,0,0,0,0,1.2356,1.2367,1.2463,1.2466,1.247,1.2539,1.2524,1.2608,1.2563,1.2528,1.2559,1.2558,1.2624,1.2632,1.2653,1.2735,1.274,1.2689,1.2692,1.2694,1.2696,0,0,0,0,0,0,0,1.235,1.2363,1.2484,1.2465,1.2469,1.2474,1.2484,1.254,1.2582,1.2531,1.2532,1.2543,1.2625,1.2648,1.2656,1.2741,1.2689,1.2693,1.2697,1.2699,1.2877,1.2878,0,0,0,0,0,0,1.234,1.2358,1.2481,1.2487,1.2408,1.2478,1.249,1.2518,1.2581,1.259,1.2544,1.2543,1.264,1.265,1.266,1.2733,1.2694,1.2699,1.2702,1.2875,1.2877,1.2879,0,0,0,0,0,0,1.2336,1.2351,1.2477,1.2423,1.2439,1.2482,1.2514,1.2521,1.2544,1.2591,1.2599,1.2559,1.2639,1.2652,1.2713,1.2736,1.2702,1.2707,1.2874,1.2876,1.2878,1.2879,0,0,0,0,0,0,1.2331,1.2349,1.2371,1.2423,1.2442,1.2527,1.2516,1.2524,1.2552,1.2552,1.2608,1.2616,1.2639,1.2704,1.2718,1.2743,1.2711,1.2872,1.2875,1.2877,1.2877,1.2881,1.2884,0,0,0,0,0,1.2325,1.2368,1.2372,1.2387,1.247,1.2529,1.254,1.2564,1.2554,1.2577,1.2608,1.2614,1.2731,1.271,1.2726,1.2753,1.287,1.2874,1.2877,1.2875,1.288,1.2884,0,0,0,0,0,0,1.2319,1.2375,1.238,1.2441,1.248,1.2531,1.2561,1.2569,1.2612,1.2611,1.2641,1.2653,1.2712,1.2739,1.2714,1.2813,1.28,1.2807,1.2793,1.2798,1.2802,1.2795,1.2715,0,0,0,0,0,1.2324,1.2366,1.2413,1.2463,1.2482,1.2518,1.2544,1.256,1.2602,1.2618,1.2654,1.2695,1.2741,1.2771,1.2817,1.288,1.2893,1.2907,1.291,1.2913,1.2919,1.2955,1.2961,1.289,1.289,1.289,0,0,1.2337,1.2373,1.2397,1.2462,1.2494,1.2538,1.2532,1.2578,1.2611,1.2626,1.2685,1.2712,1.276,1.2823,1.2852,1.2847,1.2941,1.2918,1.2919,1.2924,1.2959,1.2966,1.2971,1.2892,1.2892,1.2891,0,0,1.2381,1.2412,1.2457,1.2488,1.2536,1.256,1.257,1.2621,1.2639,1.2698,1.271,1.275,1.2829,1.2863,1.2891,1.2948,1.2956,1.2962,1.2981,1.3016,1.3022,1.3027,1.3047,1.3054,1.2967,1.2967,1.2967,0,1.2391,1.2456,1.2479,1.2525,1.2553,1.2567,1.2613,1.2643,1.2704,1.2724,1.2717,1.2816,1.285,1.292,1.2934,1.2956,1.297,1.2956,1.3018,1.3024,1.3029,1.3049,1.3057,1.2968,1.2968,1.2968,1.2968,0,1.2465,1.251,1.254,1.2597,1.2629,1.2674,1.2706,1.2736,1.2749,1.2773,1.2834,1.2874,1.2928,1.2946,1.2959,1.3018,1.3013,1.3012,1.3,1.3036,1.3055,1.3063,1.2968,1.2968,1.2968,1.2968,0,0,1.2509,1.2577,1.2588,1.2614,1.2667,1.2703,1.275,1.28,1.2826,1.2867,1.2907,1.2974,1.2972,1.3004,1.3021,1.3052,1.3094,1.3047,1.3048,1.3054,1.3162,1.3163,1.3171,1.3099,1.3101,1.3102,1.3158,0,1.256,1.2642,1.2664,1.2734,1.2776,1.279,1.2831,1.2869,1.2893,1.2933,1.2961,1.3007,1.3002,1.3021,1.3052,1.3082,1.3116,1.3079,1.3138,1.314,1.3126,1.3181,1.3182,1.3233,1.3166,1.3167,1.3168,0,1.2631,1.2672,1.2745,1.2793,1.2811,1.2847,1.2896,1.2934,1.2977,1.2993,1.3027,1.3042,1.3092,1.3077,1.3147,1.3121,1.3146,1.3165,1.3168,1.3175,1.3156,1.319,1.325,1.3257,1.318,1.3179,1.3178,0,1.2655,1.2729,1.2783,1.2804,1.2861,1.2886,1.2912,1.2954,1.2983,1.3026,1.3045,1.3094,1.3121,1.3158,1.3186,1.3172,1.3254,1.3241,1.3269,1.3268,1.3286,1.3285,1.3351,1.3302,1.3302,1.3302,1.3302,0,1.271,1.2755,1.2795,1.2828,1.2878,1.2904,1.2954,1.298,1.3017,1.3056,1.3072,1.3108,1.3142,1.3184,1.3206,1.3261,1.3273,1.3288,1.3293,1.3286,1.3284,1.3304,1.3301,1.3304,1.3304,1.3303,1.3303,0,1.2746,1.2775,1.2834,1.2883,1.2896,1.2931,1.2974,1.3007,1.3031,1.3081,1.3094,1.3133,1.3183,1.3213,1.3277,1.3292,1.3352,1.3356,1.3337,1.3339,1.3366,1.3363,1.3448,1.346,1.3403,1.3403,1.3404,0,1.278,1.2814,1.2866,1.2892,1.2917,1.296,1.299,1.3017,1.3047,1.3099,1.3126,1.3176,1.3218,1.3297,1.3332,1.338,1.3386,1.3412,1.3393,1.3385,1.3386,1.3384,1.3388,1.3415,1.3416,1.3416,1.3416,0,1.2835,1.2847,1.2888,1.2935,1.2969,1.3007,1.3045,1.3066,1.31,1.3133,1.3183,1.3215,1.3279,1.3329,1.3381,1.3408,1.3418,1.3422,1.3431,1.3425,1.3412,1.3419,1.3345,1.342,1.342,1.3419,1.3419,1.3419,1.2871,1.2902,1.2943,1.2989,1.302,1.3055,1.3088,1.3116,1.3158,1.3211,1.3225,1.3278,1.3321,1.3391,1.3419,1.3461,1.3458,1.3471,1.3475,1.3477,1.3478,1.3405,1.3471,1.3471,1.3471,1.3471,1.3471,0,1.2928,1.2955,1.2996,1.3048,1.3084,1.3088,1.3131,1.3161,1.3206,1.3245,1.3285,1.3343,1.3391,1.3429,1.3479,1.3506,1.3512,1.3518,1.3516,1.3523,1.3478,1.3465,1.3512,1.3512,1.3512,1.3512,1.3512,1.3512,1.2961,1.3014,1.3031,1.31,1.3127,1.3177,1.3201,1.3234,1.3265,1.3328,1.3367,1.3391,1.343,1.3483,1.3528,1.3538,1.3556,1.3561,1.3572,1.353,1.3526,1.3521,1.3509,1.3565,1.3565,1.3613,1.3614,1.3614]},{"header":{"parameterUnit":"m.s-1","parameterCategory":1,"la1":30.2991,"la2":30.254,"lo1":-89.0895,"lo2":-89.0444,"dy":0.0017,"dx":0.0017,"nx":28,"ny":28,"refTime":"2024-07-16T21:00:00:Z","depth":0,"parameterNumber":3,"parameterNumberName":"V-component_of_WINDS"},"data":[0,0,0,0,0,0,0,0,0,0,0,0,0,0,0,0,0,0,0,0,0,0,0,0,0,0,0,0,0,0,0,0,0,0,0,0,0,0,0,0,0,0,0,0,0,0,0,0,0,0,0,0,0,0,0,0,0,0,2.3441,2.3441,0,2.3476,2.3476,2.3476,2.3487,2.3487,2.3487,2.3487,2.352,2.3521,2.3522,0,0,0,0,0,0,0,0,0,0,0,0,0,2.3379,2.338,2.3441,2.3441,2.3442,2.3476,2.3476,2.3477,2.3487,2.3487,2.3487,2.3487,2.352,2.3521,2.3522,0,0,0,0,0,0,0,0,0,0,0,0,0,2.3409,2.338,2.3441,2.3451,2.3453,2.3476,2.3476,2.3477,2.3487,2.3487,2.3487,2.3487,2.3519,2.3521,2.3522,2.3537,0,0,2.3527,2.3528,0,0,0,0,0,0,0,0,2.3407,2.3411,2.3449,2.3451,2.3452,2.3477,2.3466,2.3497,2.3488,2.3474,2.3487,2.3487,2.3506,2.3508,2.3515,2.3538,2.354,2.3527,2.3528,2.3529,2.3529,0,0,0,0,0,0,0,2.3405,2.341,2.3455,2.345,2.3452,2.3453,2.3457,2.3472,2.3491,2.3475,2.3476,2.348,2.3506,2.3514,2.3516,2.354,2.3527,2.3528,2.3529,2.353,2.3572,2.3572,0,0,0,0,0,0,2.3402,2.3408,2.3453,2.3456,2.3429,2.3454,2.3458,2.3469,2.3491,2.3494,2.348,2.3481,2.3511,2.3514,2.3517,2.3533,2.3529,2.353,2.3531,2.3572,2.3572,2.3572,0,0,0,0,0,0,2.34,2.3406,2.3452,2.3432,2.3438,2.3455,2.3467,2.347,2.3478,2.3495,2.3498,2.3485,2.3511,2.3515,2.3531,2.3535,2.3531,2.3532,2.3572,2.3572,2.3572,2.3566,0,0,0,0,0,0,2.3398,2.3405,2.3412,2.3432,2.3439,2.3467,2.3468,2.3471,2.348,2.3481,2.35,2.3502,2.3511,2.3529,2.3532,2.3537,2.3533,2.3571,2.3572,2.3572,2.3566,2.3566,2.3566,0,0,0,0,0,2.3396,2.341,2.3413,2.3418,2.3448,2.3467,2.3471,2.3482,2.3481,2.3487,2.3497,2.3502,2.3533,2.353,2.3535,2.3539,2.3571,2.3572,2.3572,2.3566,2.3566,2.3566,0,0,0,0,0,0,2.339,2.3412,2.3416,2.3437,2.345,2.3469,2.3477,2.3482,2.3495,2.3495,2.3507,2.3511,2.3525,2.3534,2.353,2.3552,2.3552,2.3554,2.3546,2.3546,2.3547,2.3544,2.3535,0,0,0,0,0,2.3391,2.3405,2.3424,2.344,2.3446,2.346,2.3469,2.3476,2.349,2.3495,2.3507,2.3519,2.3531,2.3539,2.3552,2.3567,2.357,2.3572,2.3572,2.3572,2.3573,2.3579,2.3579,2.3574,2.3574,2.3574,0,0,2.3393,2.3407,2.3416,2.3439,2.345,2.3462,2.3465,2.3479,2.3488,2.3497,2.3512,2.3521,2.3535,2.355,2.3557,2.3557,2.3575,2.3573,2.3573,2.3573,2.3579,2.358,2.358,2.3574,2.3574,2.3574,0,0,2.3403,2.3417,2.343,2.344,2.3456,2.3465,2.3468,2.3486,2.3492,2.3507,2.3513,2.3523,2.3545,2.3554,2.3561,2.357,2.3574,2.3574,2.3575,2.358,2.358,2.3581,2.3582,2.3583,2.3575,2.3575,2.3575,0,2.3404,2.3425,2.3436,2.3449,2.3457,2.3465,2.3477,2.3487,2.3506,2.3511,2.3511,2.3537,2.3547,2.3562,2.3564,2.3571,2.3573,2.3572,2.3579,2.358,2.358,2.3582,2.3583,2.3575,2.3575,2.3575,2.3575,0,2.3423,2.3437,2.3445,2.3463,2.3473,2.3485,2.3496,2.3504,2.3509,2.3517,2.3531,2.3543,2.3557,2.3561,2.3566,2.3576,2.3575,2.3577,2.3578,2.3581,2.3582,2.3583,2.3574,2.3574,2.3575,2.3575,0,0,2.3433,2.3454,2.3457,2.3463,2.348,2.349,2.3501,2.3515,2.352,2.3533,2.3541,2.3557,2.3558,2.3567,2.3573,2.3577,2.3581,2.3578,2.3579,2.3577,2.3589,2.3587,2.3588,2.3583,2.3583,2.3584,2.3588,0,2.3444,2.3465,2.3474,2.349,2.3501,2.3507,2.3517,2.3527,2.3534,2.3543,2.355,2.3561,2.3562,2.3567,2.3572,2.358,2.3583,2.3579,2.3589,2.359,2.3585,2.3589,2.3588,2.3591,2.3589,2.3589,2.3589,0,2.3461,2.3472,2.3489,2.3501,2.3506,2.3515,2.3526,2.3535,2.3546,2.355,2.3557,2.3563,2.3572,2.3571,2.3583,2.358,2.3585,2.3589,2.3589,2.359,2.3589,2.3589,2.3593,2.3593,2.359,2.359,2.359,0,2.3463,2.3483,2.3495,2.35,2.3516,2.3521,2.3527,2.3537,2.3544,2.3553,2.3557,2.3567,2.3572,2.3579,2.3586,2.3585,2.3596,2.3597,2.3599,2.3599,2.3601,2.3601,2.3605,2.3605,2.3605,2.3605,2.3605,0,2.3474,2.3484,2.3496,2.3503,2.3513,2.3522,2.3531,2.3538,2.3546,2.3553,2.3559,2.3566,2.3575,2.3582,2.3587,2.3595,2.3597,2.36,2.3601,2.3599,2.3598,2.3602,2.3601,2.3605,2.3605,2.3605,2.3605,0,2.3479,2.3487,2.3501,2.3513,2.3516,2.3523,2.3533,2.3539,2.3545,2.3554,2.3557,2.3566,2.3574,2.3581,2.3593,2.3596,2.3603,2.3605,2.36,2.36,2.3601,2.3601,2.3607,2.3607,2.3608,2.3608,2.3608,0,2.3485,2.3493,2.3505,2.351,2.3516,2.3525,2.3531,2.3539,2.3544,2.3555,2.3559,2.3568,2.3575,2.3588,2.3595,2.3602,2.3604,2.3605,2.3605,2.3602,2.3602,2.3601,2.3601,2.3605,2.3605,2.3605,2.3605,0,2.3494,2.3497,2.3506,2.3515,2.3522,2.353,2.3538,2.3541,2.355,2.3556,2.3564,2.357,2.358,2.3588,2.3596,2.3601,2.3603,2.3605,2.3605,2.3603,2.3599,2.36,2.3599,2.3605,2.3605,2.3605,2.3605,2.3605,2.3499,2.3505,2.3514,2.3522,2.3529,2.3535,2.3541,2.3547,2.3554,2.3563,2.3566,2.3574,2.3581,2.3592,2.3597,2.3602,2.3603,2.3604,2.3604,2.3604,2.3603,2.3599,2.3604,2.3604,2.3604,2.3604,2.3604,0,2.3507,2.3512,2.352,2.353,2.3536,2.3538,2.3546,2.3551,2.3558,2.3564,2.3571,2.3579,2.3585,2.3592,2.3599,2.3601,2.3603,2.3603,2.3602,2.3603,2.3603,2.3601,2.3601,2.3601,2.3601,2.3601,2.3601,2.3601,2.3512,2.3521,2.3524,2.3536,2.3541,2.3548,2.3552,2.3557,2.3562,2.3571,2.3577,2.3581,2.3587,2.3593,2.3599,2.36,2.3602,2.3602,2.3603,2.3603,2.3603,2.3604,2.3602,2.3602,2.3602,2.3603,2.3603,2.3603]}]]